Location: Cypress Hills Dark-Sky Preserve - CHICO
(49.6176°N, 110.2634°W)
Time: 15:42:40
(UTC-06:00)

Amateur Radio Satellites - All Passes

Search period start: 22 October 2014 15:12
Search period end: 23 October 2014 15:12
Location: Cypress Hills Dark-Sky Preserve - CHICO, 49.6176°N, 110.2634°W

Satellite Date Start Highest point End Downlink Frequencies (MHz)
Time Altitude Azimuth
TMSAT-1 22 Oct 15:13:08 15:18:25 78° 73° (ENE) 15:23:46 436.925 FM
JAS-1B 22 Oct 15:19:18 15:24:22 29° 266° (W) 15:29:15 435.800 - 435.900 CW/SSB
Sapphire 22 Oct 15:23:51 15:27:53 22° 252° (WSW) 15:31:54 437.095 MHz 1200 baud AX-25 AFSK
AO-7 22 Oct 15:29:21 15:37:10 49° 58° (ENE) 15:45:01 29.400 - 29.500 MHz
Oscar 19 22 Oct 15:32:19 15:35:23 16° 272° (W) 15:38:28 437.125 CW, 437.150 USB
AO-27 22 Oct 15:41:49 15:46:13 27° 267° (W) 15:50:40 436.795 MHz FM
PCSat 22 Oct 15:47:56 15:50:23 13° 257° (WSW) 15:52:50 145.825 MHz
KITSAT 1 22 Oct 15:53:28 16:00:58 40° 328° (NNW) 16:08:29 435.175 FM
ISS 22 Oct 15:57:58 16:01:18 81° 160° (SSE) 16:04:40 145.800 FM
UOSAT-12 22 Oct 16:11:40 16:16:12 53° 123° (ESE) 16:20:49 437.025 FM, 437.400 FM
JAS-2 22 Oct 16:13:05 16:17:34 21° 50° (NE) 16:22:25 435.800 - 435.900 CW/SSB, 435.910 FM
SO-50 22 Oct 16:15:23 16:19:27 30° 326° (NW) 16:23:38 436.795 FM
Saudisat 1A 22 Oct 16:16:05 16:20:17 39° 40° (NE) 16:24:27 436.775 MHz
Uosat F 22 Oct 16:34:09 16:39:08 72° 72° (ENE) 16:44:11 435.120 FM
Uribyol 2 22 Oct 16:35:50 16:36:03 10° 277° (W) 16:36:16 436.500 FM
Gurwin Techsat 1B 22 Oct 16:42:43 16:46:07 17° 272° (W) 16:49:32 435.225 FM
TMSAT-1 22 Oct 16:55:31 16:58:59 17° 272° (W) 17:02:28 436.925 FM
AO-7 22 Oct 17:22:03 17:30:00 49° 260° (W) 17:38:00 29.400 - 29.500 MHz
ISS 22 Oct 17:34:50 17:38:09 58° 360° (N) 17:41:28 145.800 FM
Hamsat 22 Oct 17:47:35 17:51:39 49° 71° (ENE) 17:55:42 145.90 MHz
UOSAT-12 22 Oct 17:52:20 17:56:36 33° 324° (NW) 18:00:55 437.025 FM, 437.400 FM
KITSAT 1 22 Oct 17:52:25 17:58:50 25° 356° (N) 18:05:15 435.175 FM
JAS-2 22 Oct 17:55:39 18:01:37 87° 74° (ENE) 18:08:28 435.800 - 435.900 CW/SSB, 435.910 FM
Saudisat 1A 22 Oct 17:55:46 17:59:51 36° 240° (WSW) 18:03:54 436.775 MHz
SO-50 22 Oct 17:58:56 18:01:29 14° 350° (N) 18:04:04 436.795 FM
OPAL 22 Oct 18:02:59 18:07:19 29° 97° (E) 18:11:36 ?
Uosat F 22 Oct 18:15:06 18:18:28 18° 270° (W) 18:21:52 435.120 FM
HO-68 22 Oct 18:56:19 19:00:28 17° 43° (NE) 19:04:37 435.675 MHz FM
SO-67 22 Oct 19:08:30 19:11:48 46° 72° (ENE) 19:15:08 435.3500 MHz FM
ISS 22 Oct 19:11:38 19:14:59 84° 199° (SSW) 19:18:20 145.800 FM
Hamsat 22 Oct 19:24:50 19:27:52 19° 269° (W) 19:30:55 145.90 MHz
UOSAT-12 22 Oct 19:35:27 19:38:08 15° 348° (NNW) 19:40:50 437.025 FM, 437.400 FM
SO-50 22 Oct 19:41:05 19:43:57 16° 15° (NNE) 19:46:50 436.795 FM
OPAL 22 Oct 19:41:39 19:46:23 44° 296° (WNW) 19:51:03 ?
STRAND 1 22 Oct 19:43:10 19:47:55 35° 96° (E) 19:52:36 ?
JAS-2 22 Oct 19:43:41 19:47:48 19° 277° (W) 19:52:15 435.800 - 435.900 CW/SSB, 435.910 FM
KITSAT 1 22 Oct 19:49:47 19:56:57 33° 26° (NNE) 20:04:06 435.175 FM
AO-40 22 Oct 19:59:25 01:47:56 35° 171° (S) 03:49:41 Beacon 2401.320
HO-68 22 Oct 20:39:48 20:46:47 58° 65° (ENE) 20:53:48 435.675 MHz FM
SO-67 22 Oct 20:43:10 20:45:03 14° 270° (W) 20:46:57 435.3500 MHz FM
UKube-1 22 Oct 20:47:35 20:50:42 20° 60° (ENE) 20:53:51 145.840 MHz, 145.915 MHz
ISS 22 Oct 20:48:44 20:51:21 21° 218° (SW) 20:53:58 145.800 FM
RS-15 22 Oct 21:00:29 21:01:37 10° 90° (E) 21:02:44 29.354 - 29.394 USB, Beacon 29.352 USB
UOSAT-12 22 Oct 21:17:29 21:20:11 15° 12° (NNE) 21:22:53 437.025 FM, 437.400 FM
SO-50 22 Oct 21:21:21 21:25:49 37° 38° (NE) 21:30:20 436.795 FM
STRAND 1 22 Oct 21:22:23 21:27:08 38° 295° (WNW) 21:31:52 ?
FUNcube-1 22 Oct 21:23:11 21:26:18 18° 60° (ENE) 21:29:23 145.950 - 145.970 MHz USB
Oscar 11 22 Oct 21:30:06 21:34:07 39° 68° (ENE) 21:38:09 145.825 FM, Beacon 2401.500 USB
KITSAT 1 22 Oct 21:45:27 21:53:36 80° 51° (NE) 22:01:41 435.175 FM
ZACube-1 22 Oct 22:12:31 22:16:55 48° 70° (ENE) 22:21:16 437.345 MHz
UKube-1 22 Oct 22:22:14 22:26:31 58° 258° (WSW) 22:30:51 145.840 MHz, 145.915 MHz
HO-68 22 Oct 22:28:26 22:34:50 35° 265° (W) 22:41:18 435.675 MHz FM
UOSAT-12 22 Oct 22:57:25 23:01:44 33° 36° (NE) 23:06:00 437.025 FM, 437.400 FM
FUNcube-1 22 Oct 22:57:40 23:02:14 67° 258° (WSW) 23:06:46 145.950 - 145.970 MHz USB
RS-15 22 Oct 23:00:35 23:10:55 50° 114° (ESE) 23:21:13 29.354 - 29.394 USB, Beacon 29.352 USB
SO-50 22 Oct 23:01:54 23:06:32 47° 238° (WSW) 23:11:12 436.795 FM
Oscar 11 22 Oct 23:06:48 23:10:25 25° 266° (W) 23:14:03 145.825 FM, Beacon 2401.500 USB
KITSAT 1 22 Oct 23:41:37 23:48:15 29° 253° (WSW) 23:54:52 435.175 FM
ZACube-1 22 Oct 23:49:53 23:53:32 23° 268° (W) 23:57:10 437.345 MHz
MaSat-1 23 Oct 00:08:00 00:10:33 16° 108° (ESE) 00:12:58 437.345 MHz
UOSAT-12 23 Oct 00:37:30 00:42:07 53° 237° (WSW) 00:46:39 437.025 FM, 437.400 FM
RS-15 23 Oct 01:12:13 01:23:03 64° 320° (NW) 01:34:01 29.354 - 29.394 USB, Beacon 29.352 USB
MaSat-1 23 Oct 01:41:55 01:45:58 60° 303° (WNW) 01:49:36 437.345 MHz
Oscar 10/S400 23 Oct 01:42:54 02:32:00 17° 239° (WSW) 04:21:07 145.825 - 145.975 CW/USB, Beacon 145.810 USB
Oscar 19 23 Oct 01:58:09 02:02:00 21° 91° (E) 02:05:49 437.125 CW, 437.150 USB
AO-27 23 Oct 02:12:00 02:14:05 12° 85° (E) 02:16:11 436.795 MHz FM
Oscar 16 23 Oct 02:42:51 02:47:51 50° 100° (E) 02:52:49 437.025 USB, Beacon 2401.1428
AO-Echo 23 Oct 02:54:22 02:59:15 37° 96° (E) 03:04:09 ?
JAS-1B 23 Oct 02:55:15 03:01:30 55° 101° (E) 03:08:53 435.800 - 435.900 CW/SSB
Uribyol 2 23 Oct 02:58:55 03:03:35 32° 95° (E) 03:08:12 436.500 FM
ITAMSAT 1 23 Oct 03:04:22 03:09:07 33° 96° (E) 03:13:49 435.822 SSB
Gurwin Techsat 1B 23 Oct 03:12:35 03:16:47 23° 91° (E) 03:20:57 435.225 FM
MaSat-1 23 Oct 03:21:20 03:22:17 11° 322° (NW) 03:23:13 437.345 MHz
TMSAT-1 23 Oct 03:25:11 03:29:19 23° 91° (E) 03:33:26 436.925 FM
RS-15 23 Oct 03:27:57 03:37:53 38° 352° (N) 03:48:03 29.354 - 29.394 USB, Beacon 29.352 USB
Oscar 19 23 Oct 03:36:43 03:41:47 62° 290° (WNW) 03:46:49 437.125 CW, 437.150 USB
OPAL 23 Oct 03:45:39 03:48:49 17° 52° (NE) 03:51:58 ?
AO-27 23 Oct 03:49:12 03:54:29 78° 104° (ESE) 03:59:43 436.795 MHz FM
Oscar 16 23 Oct 04:22:40 04:26:59 28° 299° (WNW) 04:31:16 437.025 USB, Beacon 2401.1428
Sapphire 23 Oct 04:26:31 04:30:57 27° 110° (ESE) 04:35:25 437.095 MHz 1200 baud AX-25 AFSK
AO-Echo 23 Oct 04:33:09 04:38:02 39° 295° (WNW) 04:42:55 ?
Uribyol 2 23 Oct 04:38:16 04:43:11 42° 294° (WNW) 04:48:03 436.500 FM
Uosat F 23 Oct 04:38:42 04:41:45 16° 88° (E) 04:44:47 435.120 FM
ITAMSAT 1 23 Oct 04:43:48 04:48:42 41° 295° (WNW) 04:53:33 435.822 SSB
JAS-1B 23 Oct 04:46:28 04:52:02 35° 298° (WNW) 04:58:25 435.800 - 435.900 CW/SSB
PCSat 23 Oct 04:48:30 04:53:32 41° 115° (ESE) 04:58:37 145.825 MHz
Gurwin Techsat 1B 23 Oct 04:51:54 04:57:09 60° 290° (WNW) 05:02:22 435.225 FM
JAS-2 23 Oct 05:01:29 05:05:15 14° 80° (E) 05:09:02 435.800 - 435.900 CW/SSB, 435.910 FM
TMSAT-1 23 Oct 05:04:25 05:09:40 61° 290° (WNW) 05:14:53 436.925 FM
AO-7 23 Oct 05:18:02 05:25:59 46° 100° (E) 05:33:54 29.400 - 29.500 MHz
Oscar 19 23 Oct 05:18:18 05:20:09 12° 310° (NW) 05:22:00 437.125 CW, 437.150 USB
OPAL 23 Oct 05:21:51 05:27:01 86° 71° (ENE) 05:32:09 ?
STRAND 1 23 Oct 05:27:15 05:30:02 15° 53° (NE) 05:32:50 ?
AO-27 23 Oct 05:29:45 05:33:26 20° 304° (NW) 05:37:06 436.795 MHz FM
RS-15 23 Oct 05:43:01 05:53:30 46° 25° (NNE) 06:04:19 29.354 - 29.394 USB, Beacon 29.352 USB
Sapphire 23 Oct 06:08:39 06:14:01 62° 310° (NW) 06:19:25 437.095 MHz 1200 baud AX-25 AFSK
Uosat F 23 Oct 06:16:05 06:21:10 81° 287° (WNW) 06:26:13 435.120 FM
PCSat 23 Oct 06:31:49 06:36:58 43° 316° (NW) 06:42:10 145.825 MHz
Gurwin Techsat 1B 23 Oct 06:34:07 06:36:05 12° 310° (NW) 06:38:03 435.225 FM
JAS-2 23 Oct 06:44:07 06:51:43 61° 100° (E) 06:59:28 435.800 - 435.900 CW/SSB, 435.910 FM
TMSAT-1 23 Oct 06:46:30 06:48:34 12° 310° (NW) 06:50:39 436.925 FM
STRAND 1 23 Oct 07:03:18 07:08:25 78° 73° (ENE) 07:13:36 ?
OPAL 23 Oct 07:03:35 07:06:33 15° 270° (W) 07:09:31 ?
Hamsat 23 Oct 07:04:29 07:08:37 55° 100° (E) 07:12:44 145.90 MHz
AO-7 23 Oct 07:10:57 07:18:54 52° 301° (WNW) 07:26:50 29.400 - 29.500 MHz
Sapphire 23 Oct 07:54:39 07:58:33 20° 333° (NNW) 08:02:28 437.095 MHz 1200 baud AX-25 AFSK
RS-15 23 Oct 07:55:57 08:07:05 84° 234° (SW) 08:18:41 29.354 - 29.394 USB, Beacon 29.352 USB
Uosat F 23 Oct 07:56:24 07:59:12 15° 307° (NW) 08:01:59 435.120 FM
SO-67 23 Oct 08:00:27 08:03:32 29° 96° (E) 08:06:36 435.3500 MHz FM
Saudisat 1A 23 Oct 08:06:49 08:10:00 20° 114° (ESE) 08:13:12 436.775 MHz
PCSat 23 Oct 08:18:32 08:21:51 16° 340° (NNW) 08:25:11 145.825 MHz
JAS-2 23 Oct 08:29:33 08:36:25 39° 299° (WNW) 08:43:30 435.800 - 435.900 CW/SSB, 435.910 FM
Hamsat 23 Oct 08:41:18 08:44:13 19° 299° (WNW) 08:47:08 145.90 MHz
STRAND 1 23 Oct 08:44:58 08:48:14 17° 272° (W) 08:51:32 ?
AO-7 23 Oct 09:05:00 09:09:53 17° 325° (NW) 09:14:46 29.400 - 29.500 MHz
SO-67 23 Oct 09:33:41 09:36:24 22° 294° (WNW) 09:39:06 435.3500 MHz FM
Sapphire 23 Oct 09:42:01 09:44:13 12° 360° (N) 09:46:24 437.095 MHz 1200 baud AX-25 AFSK
Saudisat 1A 23 Oct 09:44:47 09:49:09 66° 313° (NW) 09:53:34 436.775 MHz
MaSat-1 23 Oct 09:48:48 09:51:37 81° 58° (ENE) 09:54:08 437.345 MHz
HO-68 23 Oct 09:50:13 09:56:55 39° 97° (E) 10:03:33 435.675 MHz FM
PCSat 23 Oct 10:05:18 10:07:39 13° 7° (N) 10:10:00 145.825 MHz
UKube-1 23 Oct 10:06:51 10:09:51 18° 91° (E) 10:12:50 145.840 MHz, 145.915 MHz
RS-15 23 Oct 10:09:20 10:17:56 27° 257° (WSW) 10:26:49 29.354 - 29.394 USB, Beacon 29.352 USB
JAS-2 23 Oct 10:17:16 10:19:31 12° 321° (NW) 10:21:48 435.800 - 435.900 CW/SSB, 435.910 FM
FUNcube-1 23 Oct 10:43:31 10:46:24 17° 90° (E) 10:49:14 145.950 - 145.970 MHz USB
Oscar 11 23 Oct 10:49:08 10:53:15 42° 98° (E) 10:57:21 145.825 FM, Beacon 2401.500 USB
Sapphire 23 Oct 11:26:04 11:29:54 19° 26° (NNE) 11:33:44 437.095 MHz 1200 baud AX-25 AFSK
Saudisat 1A 23 Oct 11:26:23 11:29:32 19° 335° (NNW) 11:32:41 436.775 MHz
ZACube-1 23 Oct 11:33:42 11:37:57 53° 100° (E) 11:42:04 437.345 MHz
HO-68 23 Oct 11:37:54 11:44:49 52° 297° (WNW) 11:51:43 435.675 MHz FM
UKube-1 23 Oct 11:42:06 11:46:25 58° 289° (WNW) 11:50:42 145.840 MHz, 145.915 MHz
PCSat 23 Oct 11:48:44 11:53:07 24° 32° (NNE) 11:57:29 145.825 MHz
JAS-1B 23 Oct 12:00:13 12:02:39 13° 47° (NE) 12:05:05 435.800 - 435.900 CW/SSB
Oscar 10/S400 23 Oct 12:16:06 12:21:28 11° 146° (SE) 12:26:29 145.825 - 145.975 CW/USB, Beacon 145.810 USB
FUNcube-1 23 Oct 12:18:57 12:23:11 55° 289° (WNW) 12:27:18 145.950 - 145.970 MHz USB
KITSAT 1 23 Oct 12:19:40 12:26:17 29° 107° (ESE) 12:32:54 435.175 FM
Oscar 11 23 Oct 12:25:46 12:29:15 24° 297° (WNW) 12:32:43 145.825 FM, Beacon 2401.500 USB
Oscar 16 23 Oct 12:26:54 12:30:33 20° 57° (ENE) 12:34:12 437.025 USB, Beacon 2401.1428
AO-Echo 23 Oct 12:36:26 12:38:37 13° 51° (NE) 12:40:50 ?
Uribyol 2 23 Oct 12:44:50 12:47:32 14° 52° (NE) 12:50:14 436.500 FM
ITAMSAT 1 23 Oct 12:50:16 12:53:07 15° 52° (NE) 12:55:58 435.822 SSB
Gurwin Techsat 1B 23 Oct 13:02:41 13:04:02 11° 48° (NE) 13:05:23 435.225 FM
Sapphire 23 Oct 13:09:05 13:14:29 59° 49° (NE) 13:19:50 437.095 MHz 1200 baud AX-25 AFSK
Saudisat 1A 23 Oct 13:09:12 13:10:49 12° 360° (N) 13:12:25 436.775 MHz
ZACube-1 23 Oct 13:10:53 13:14:00 20° 299° (WNW) 13:17:04 437.345 MHz
TMSAT-1 23 Oct 13:15:19 13:16:20 11° 48° (NE) 13:17:21 436.925 FM
Oscar 19 23 Oct 13:18:59 13:23:53 47° 67° (ENE) 13:28:49 437.125 CW, 437.150 USB
SO-50 23 Oct 13:21:48 13:25:07 20° 113° (ESE) 13:28:30 436.795 FM
HO-68 23 Oct 13:27:17 13:30:59 15° 319° (NW) 13:34:42 435.675 MHz FM
PCSat 23 Oct 13:31:50 13:37:19 86° 55° (NE) 13:42:45 145.825 MHz
AO-27 23 Oct 13:33:20 13:37:51 31° 62° (ENE) 13:42:23 436.795 MHz FM
ISS 23 Oct 13:34:25 13:36:05 13° 137° (SE) 13:37:45 145.800 FM
JAS-1B 23 Oct 13:46:28 13:52:18 66° 70° (ENE) 13:57:56 435.800 - 435.900 CW/SSB
Oscar 16 23 Oct 14:04:12 14:09:22 76° 256° (WSW) 14:14:33 437.025 USB, Beacon 2401.1428
AO-Echo 23 Oct 14:11:34 14:16:26 69° 72° (ENE) 14:21:31 ?
KITSAT 1 23 Oct 14:12:49 14:20:55 81° 309° (NW) 14:29:04 435.175 FM
Uribyol 2 23 Oct 14:20:57 14:26:09 73° 72° (ENE) 14:31:24 436.500 FM
ITAMSAT 1 23 Oct 14:26:35 14:31:47 77° 72° (ENE) 14:37:03 435.822 SSB
AO-7 23 Oct 14:31:34 14:38:05 27° 46° (NE) 14:44:36 29.400 - 29.500 MHz
Gurwin Techsat 1B 23 Oct 14:37:44 14:42:53 54° 69° (ENE) 14:48:04 435.225 FM
Saudisat 1A 23 Oct 14:49:01 14:52:06 18° 24° (NNE) 14:55:11 436.775 MHz
TMSAT-1 23 Oct 14:49:59 14:55:06 52° 68° (ENE) 15:00:16 436.925 FM
Sapphire 23 Oct 14:53:01 14:57:36 28° 249° (WSW) 15:02:09 437.095 MHz 1200 baud AX-25 AFSK
UOSAT-12 23 Oct 14:54:05 14:57:04 17° 111° (ESE) 15:00:05 437.025 FM, 437.400 FM
Oscar 19 23 Oct 14:59:02 15:03:26 28° 266° (W) 15:07:52 437.125 CW, 437.150 USB
SO-50 23 Oct 15:00:40 15:05:12 68° 313° (NW) 15:09:53 436.795 FM
